FW2347 Weather Reports


Display with metric or nautical units.
time (UTC)temp
F
wind
direction
speed
MPH
gust
MPH
rain 1hr
in
rain 24hr
in
rain mn
in
humidity
%
barometer
mb
20260831030058 56 0.0 0.0 0.00 0.00 0.00 75 1015.9
20260831024523 57 0.0 0.0 0.00 0.00 0.00 74 1016.0
20260831023004 58 0.0 0.0 0.00 0.00 0.00 74 1015.8
20260831021501 58 0.0 0.0 0.00 0.00 0.00 74 1015.7
20260831020054 59 360 0.0 0.0 0.00 0.00 0.00 73 1015.8
20260831014549 58 360 0.0 0.0 0.00 0.00 0.00 74 1015.8
20260831013026 59 5 0.0 0.0 0.00 0.00 0.00 72 1015.8
20260831011532 59 0.0 0.0 0.00 0.00 0.00 72 1015.8
20260831010002 59 0.0 0.0 0.00 0.00 0.00 72 1015.8
20260831004605 60 0.0 0.0 0.00 0.00 0.00 70 1015.8
20260831003049 60 0.0 0.0 0.00 0.00 0.00 70 1015.7
20260831001535 60 0.0 0.0 0.00 0.00 0.00 69 1015.7
20260831000039 61 360 0.0 0.0 0.00 0.00 0.00 69 1015.9
20260830234519 61 5 0.0 0.0 0.00 0.00 0.00 67 1015.8
20260830233004 61 5 0.0 0.0 0.00 0.00 0.00 66 1015.9
20260830231543 61 0.0 0.0 0.00 0.00 0.00 66 1015.9
20260830230037 61 0.0 0.0 0.00 0.00 0.00 64 1015.8
20260830224528 61 5 0.0 0.0 0.00 0.00 0.00 63 1015.9
20260830223004 61 360 0.0 0.0 0.00 0.00 0.00 62 1016.0
20260830221600 62 5 0.0 0.0 0.00 0.00 0.00 61 1015.9
20260830220057 63 0.0 0.0 0.00 0.00 0.00 60 1015.8
20260830214536 63 360 0.0 0.0 0.00 0.00 0.00 58 1015.6
20260830213029 64 0.0 0.0 0.00 0.00 0.00 56 1015.5
20260830211513 65 0.0 0.0 0.00 0.00 0.00 54 1015.4
20260830210005 64 0.0 0.0 0.00 0.00 0.00 56 1015.4
20260830204559 65 360 0.0 0.0 0.00 0.00 0.00 55 1015.3
20260830203042 66 5 0.0 0.0 0.00 0.00 0.00 53 1015.2
20260830201526 67 360 0.0 0.0 0.00 0.00 0.00 51 1015.0
20260830200007 69 360 0.0 0.0 0.00 0.00 0.00 50 1014.9
20260830194600 69 0.0 0.0 0.00 0.00 0.00 49 1014.7
20260830193059 72 0.0 0.0 0.00 0.00 0.00 46 1014.4
20260830191619 75 5 0.0 0.0 0.00 0.00 0.00 42 1014.3
20260830190035 77 360 0.0 0.0 0.00 0.00 0.00 40 1014.0
20260830184537 78 5 0.0 0.0 0.00 0.00 0.00 40 1013.9
20260830183030 79 360 0.0 0.0 0.00 0.00 0.00 40 1013.6
20260830181513 80 5 0.0 0.0 0.00 0.00 0.00 39 1013.4
20260830180007 82 0.0 0.0 0.00 0.00 0.00 38 1013.2
20260830174610 83 360 0.0 0.0 0.00 0.00 0.00 38 1013.0
20260830173054 84 360 0.0 0.0 0.00 0.00 0.00 37 1012.8
20260830171541 85 360 0.0 0.0 0.00 0.00 0.00 37 1012.8
20260830170022 85 5 0.0 0.0 0.00 0.00 0.00 36 1012.7
20260830164511 86 5 0.0 0.0 0.00 0.00 0.00 36 1012.6
20260830163104 86 360 0.0 0.0 0.00 0.00 0.00 36 1012.6
20260830161548 87 360 0.0 0.0 0.00 0.00 0.00 37 1012.6
20260830160039 87 5 0.0 0.0 0.00 0.00 0.00 36 1012.7
20260830154525 88 5 0.0 0.0 0.00 0.00 0.00 37 1012.7
20260830153021 88 0.0 0.0 0.00 0.00 0.00 38 1012.7
20260830151503 89 0.0 0.0 0.00 0.00 0.00 39 1012.7
20260830150106 87 360 0.0 0.0 0.00 0.00 0.00 39 1012.8
20260830144606 89 0.0 0.0 0.00 0.00 0.00 36 1012.9
20260830143035 90 5 0.0 0.0 0.00 0.00 0.00 34 1012.8
20260830141515 90 0.0 0.0 0.00 0.00 0.00 33 1013.0
20260830140106 89 360 0.0 0.0 0.00 0.00 0.00 33 1013.3
20260830134543 89 360 0.0 0.0 0.00 0.00 0.00 33 1013.6
20260830133033 89 360 0.0 0.0 0.00 0.00 0.00 34 1013.8
20260830131539 88 5 0.0 0.0 0.00 0.00 0.00 35 1014.0
20260830130012 88 0.0 0.0 0.00 0.00 0.00 34 1014.0
20260830124602 88 0.0 0.0 0.00 0.00 0.00 35 1014.3
20260830123055 87 5 0.0 0.0 0.00 0.00 0.00 37 1014.6
20260830121540 88 0.0 2.0 0.00 0.00 0.00 36 1014.8
20260830120044 85 360 0.0 0.0 0.00 0.00 0.00 37 1015.1
20260830114510 86 153 0.0 0.0 0.00 0.00 0.00 36 1015.1
20260830113100 85 108 0.0 0.0 0.00 0.00 0.00 36 1015.4
20260830111545 85 205 0.0 0.0 0.00 0.00 0.00 37 1015.6
20260830110020 84 76 0.0 0.0 0.00 0.00 0.00 39 1015.7
20260830104507 83 19 0.0 0.0 0.00 0.00 0.00 40 1015.9
20260830103059 83 73 0.0 0.0 0.00 0.00 0.00 42 1016.0
20260830101539 83 30 0.0 0.0 0.00 0.00 0.00 45 1016.0
20260830100034 83 66 0.0 0.0 0.00 0.00 0.00 46 1016.1
20260830094525 81 67 0.0 0.0 0.00 0.00 0.00 48 1016.4
20260830093023 80 67 0.0 0.0 0.00 0.00 0.00 50 1016.4
20260830091601 80 88 0.0 0.0 0.00 0.00 0.00 52 1016.5
20260830090048 79 64 0.0 0.0 0.00 0.00 0.00 54 1016.5
20260830084525 78 76 0.0 0.0 0.00 0.00 0.00 57 1016.6
20260830083021 77 41 0.0 0.0 0.00 0.00 0.00 59 1016.7
20260830081508 75 273 0.0 0.0 0.00 0.00 0.00 63 1016.7
20260830080049 74 277 0.0 0.0 0.00 0.00 0.00 64 1016.7
20260830074542 72 277 0.0 0.0 0.00 0.00 0.00 68 1016.8
20260830073032 70 277 0.0 0.0 0.00 0.00 0.00 71 1016.8
20260830071524 67 277 0.0 0.0 0.00 0.00 0.00 72 1016.8
20260830070005 66 277 0.0 0.0 0.00 0.00 0.00 72 1016.8
20260830064553 65 277 0.0 0.0 0.00 0.00 0.00 69 1016.9
20260830063033 61 277 0.0 0.0 0.00 0.00 0.00 52 1016.7
20260830061518 56 277 0.0 0.0 0.00 0.00 0.00 49 1016.8
20260830054600 56 277 0.0 0.0 0.00 0.00 0.00 49 1016.5
20260830053055 55 277 0.0 0.0 0.00 0.00 0.00 53 1016.5
20260830051539 55 277 0.0 0.0 0.00 0.00 0.00 56 1016.4
20260830050030 56 277 0.0 0.0 0.00 0.00 0.00 59 1016.4
20260830044537 57 277 0.0 0.0 0.00 0.00 0.00 58 1016.3
20260830043014 56 280 0.0 0.0 0.00 0.00 0.00 58 1016.3
20260830041524 56 280 0.0 0.0 0.00 0.00 0.00 57 1016.4
20260830040008 56 281 0.0 0.0 0.00 0.00 0.00 62 1016.4
20260830034501 56 281 0.0 0.0 0.00 0.00 0.00 62 1016.3
20260830033043 57 282 0.0 0.0 0.00 0.00 0.00 63 1016.2
20260830031529 57 288 0.0 0.0 0.00 0.00 0.00 65 1016.2